Regional Weather Roundup
Issued by NWS

Home | Current Version | Previous Version | Text Only | Print | Product List | Glossary Off
Versions: 1 2 3 4 5 6 7 8 9 10 11 12 13 14 15 16 17 18 19 20 21 22 23 24 25 26 27 28 29 30 31 32 33 34 35 36 37 38 39 40 41 42 43 44 45 46 47 48 49 50

000
ASUS45 KBOU 221110
RWRCO

WEATHER ROUNDUP FOR COLORADO
NATIONAL WEATHER SERVICE DENVER/BOULDER CO
500 AM MDT TUE MAY 22 2018

NOTE: "FAIR" INDICATES FEW OR NO CLOUDS BELOW 12000 FEET WITH NO
SIGNIFICANT WEATHER AND/OR OBSTRUCTIONS TO VISIBILITY.

COZ001>005-013-030-031-221200-
...NORTHWEST COLORADO...

CITY           SKY/WX    TMP DP  RH WIND       PRES   REMARKS
CRAIG          FAIR      38  34  85 CALM      29.99R
HAYDEN         FAIR      47  33  58 E13       30.02S
MEEKER         FAIR      48  33  56 E8        29.99R
RANGELY        FAIR      57  29  35 SE12      29.91R
RABBIT EARS PA FAIR      41  32  70 S7        30.23S
STEAMBOAT SPGS FAIR      42  33  70 CALM      30.03S
WALDEN         FAIR      36  30  80 SE3       30.13S
$$

COZ006>008-011-221200-
...WEST CENTRAL VALLEYS...

CITY           SKY/WX    TMP DP  RH WIND       PRES   REMARKS
GRAND JUNCTION FAIR      61  34  36 E15       29.89S
MONTROSE       FAIR      50  31  48 VRB3      29.98S
EAGLE          FAIR      41  29  62 E6        30.07R
RIFLE          FAIR      50  35  56 CALM      29.95S
DELTA          FAIR      56  33  42 CALM      29.95S
NUCLA          FAIR      52  28  40 E3        30.01R
$$

COZ017>023-064>068-221200-
...SOUTHWEST COLORADO...

CITY           SKY/WX    TMP DP  RH WIND       PRES   REMARKS
DURANGO        MOCLDY    44  40  85 NE5       30.08R
CORTEZ         FAIR      60  39  45 MISG      30.00R
PAGOSA SPRINGS MOCLDY    43  35  72 CALM      30.15S
TELLURIDE      FAIR      47  30  51 E5        30.16S
WOLF CREEK PAS FAIR      32  30  93 SW12      30.37S WCI  23
$$

COZ009-010-012-014-032>034-037-058>063-221200-
...CENTRAL COLORADO...

CITY           SKY/WX    TMP DP  RH WIND       PRES   REMARKS
ASPEN          FAIR      43  29  57 SW8       30.07S
BUENA VISTA    FAIR      37  33  84 NW6       30.16F
COPPER MTN     FAIR      45  21  39 SE10      30.31F
BERTHOUD PASS  FAIR      32  21  64 E9G16     30.34S WCI  24
COTTONWOOD PAS FAIR      45  34  65 W5        30.22F
GUNNISON       FAIR      38  32  79 N8        30.15S
GRANBY         FAIR      35  31  84 CALM      30.15R
KREMMLING      FAIR      39  32  75 CALM      30.12R
LEADVILLE      FAIR      30  28  92 CALM      30.21S
MONARCH PASS   FAIR      37  25  60 MISG      30.41F
SALIDA         FAIR      45  37  75 N9        30.21F
SUNLIGHT       FAIR      37  27  65 E6        30.25F
WILKERSON PASS FAIR      37  27  65 SW5       30.31F
$$

COZ069>075-221200-
...SAN LUIS VALLEY/SANGRE DE CRISTO MOUNTAINS...

CITY           SKY/WX    TMP DP  RH WIND       PRES   REMARKS
ALAMOSA        FOG       36  36 100 E5        30.16S VSB 1/4
DEL NORTE      FAIR      37  35  90 W10       30.17F
LA VETA PASS   FAIR      36  34  93 MISG      30.32S
SAGUACHE       NOT AVBL
$$

COZ035-036-038>040-221200-
...NORTHERN COLORADO FRONT RANGE...

CITY           SKY/WX    TMP DP  RH WIND       PRES   REMARKS
DENVER INTL AP FAIR      49  42  77 SW7       29.98S
AURORA         PTCLDY    49  41  74 SW7       30.00S
FRONT RANGE AP FAIR      50  43  76 SW10      29.99S
ERIE MUNI ARPT FAIR      46  43  90 CALM      30.04R
BOULDER MUN AP FAIR      52  45  76 SW3       29.99S
CENTENNIAL     FAIR      48  39  71 SW6       30.01S
BROOMFIELD     FAIR      54  41  62 CALM      30.01S
FORT COLLINS   FAIR      52  48  86 N8        29.99S
LONGMONT       FAIR      50  44  78 W3        30.00S
$$

COZ041-046-047-076>085-087-088-221200-
...PIKES PEAK/PALMER DIVIDE AND SOUTHERN FOOTHILLS...

CITY           SKY/WX    TMP DP  RH WIND       PRES   REMARKS
COLO. SPRINGS  MOCLDY    50  39  66 NW6       30.03F
A. F. ACADEMY  FAIR      42  37  84 N10       30.03F
SCHRIEVER AFB  NOT AVBL
CHEYENNE MTN   FAIR      56  33  42 NW8       30.00F
ELLICOTT         N/A    N/A N/A N/A E7        30.01S
FALCON         FAIR      49  36  61 NW7       30.05F
FORT CARSON    FAIR      47  38  70 NW10      29.99F
LIMON          FAIR      46  40  79 SE7       30.00F
MONUMENT HILL  FAIR      41  34  75 SW3       30.08S
CANON CITY     FAIR      55  37  50 W13       29.98S
WALSENBURG     FAIR      52  39  62 W10       30.01R
TRINIDAD       FAIR      53  46  77 SE5       30.02R
$$

COZ042>045-048>051-090-091-221200-
...NORTHEAST COLORADO...

CITY           SKY/WX    TMP DP  RH WIND       PRES   REMARKS
GREELEY ARPT   FAIR      51  49  92 N10       29.96F
AKRON          FAIR      55  44  66 S10       29.96R
BURLINGTON     FAIR      53  45  74 SW7       29.98F
WRAY           FAIR      52  45  76 W5        29.95R
YUMA           FAIR      48  43  81 SW6       29.95R
STERLING         N/A     52  52 100 CALM      29.94S FOG
HOLYOKE        FAIR      54  52  94 CALM      29.95R
FORT MORGAN    FAIR      46  44  93 E5        29.96S
$$

COZ086-089-092>099-221200-
...SOUTHEAST COLORADO...

CITY           SKY/WX    TMP DP  RH WIND       PRES   REMARKS
PUEBLO         FAIR      47  36  65 NW5       29.95F
LA JUNTA       FAIR      62  47  57 S8        29.95S
LAMAR          FAIR      58  48  69 CALM      29.94S
SPRINGFIELD      N/A     60  48  64 S16       30.00R
$$



USA.gov is the U.S. government's official web portal to all federal, state and local government web resources and services.